COSMOS 2251 DEB, 33782

Orbit data source: Space-Track

COSMOS 2251 DEB, 33782 is space debris in LEO originally from a launch on Wed, 16 Jun 1993 UTC launched from the Plesetsk Missile And Space Complex (PKMTR). The debris from Iridium 33, an American commercial communications satellite, has been tracked extensively since its accidental collision with the defunct Russian satellite Cosmos 2251 in 2009. This event, occurring at high speed in low Earth orbit (LEO), generated thousands of pieces of space debris, significantly increasing the risk of further collisions. The Iridium 33 debris cloud has impacted space traffic management and orbital debris mitigation strategies, making it a subject of ongoing study in space situational awareness.

Loading next visibility...
Identifier
33782, 1993-036X
Orbit
LEO
Country
Flag of CISCIS
Related business
Manufacturer
Unknown
Mission
Spacecraft
Bus & Motor
Unknown
Mass
Unknown
Launch date (UTC)
1993-06-16 (33 years ago)
Launch vehicle
Unknown
Launch site
Plesetsk Missile And Space Complex (PKMTR)
Object type
Payload
Rocket body
Debris
Shape & HBR
Unknown shape, 0.1 m
Radar Cross Section
Small (<0.1 m²)

Expand to show TLE details & history
Last TLE update: 6 hours ago

TLE from 6 hours ago
0 COSMOS 2251 DEB
1 33782U 93036X   26124.16403992  .00001005  00000-0  32110-3 0  9999
2 33782  74.0347  14.0581 0019645  49.3896  77.5869 14.40838989901773
Epoch: 2026-05-04T03:56Z
TLE epoch observation values (Epoch: 2026-05-04T03:56:13.049Z)
Latitude
50.0897°
Longitude
-106.94308°
Altitude
760.372 km
Speed
7.481 km/s
True Right ascension
11h 36m 40s
True Declination
49° 55' 13"
Sunlit
Object was in daylight at epoch
Visualization orbit readout
Latitude
Unknown
Longitude
Unknown
Altitude
Unknown
Speed
Unknown
Apparent Right ascension
Unknown
Apparent Declination
Unknown
Sunlit
N/A
Visualization observer readout
Local Sidereal Time
17:36:50
Azimuth
Unknown
Elevation
Unknown
Doppler factor
Unknown
Orbital elements
Apogee altitude
767.356 km
Perigee altitude
739.337 km
Semi-major axis
7,131.484 km
Eccentricity
0.00196
Inclination
74.0347°
RAAN
14.0581°
Arg. of periapsis
49.3896°
True anomaly
77.80687°
Mean anomaly
77.5869°
Eccentric anomaly
77.69687°
Mean motion
3.60391 °/min
Orbital period
99.89 mins
BSTAR
0.0003211
Loading maneuver chart data...
Computing Atmospheric mass density...

Documentation

Showing up to 5 results
|